Time,TemperatureF,DewpointF,PressureIn,WindDirection,WindDirectionDegrees,WindSpeedMPH,WindSpeedGustMPH,Humidity,HourlyPrecipIn,Conditions,Clouds,dailyrainin,SoftwareType,DateUTC
2013-06-01 00:01:00,70.0,64.0,29.98,WSW,249,2.0,7.0,80,0.00,,,0.00,oem by Ross Wheeler,2013-06-01 04:01:00,
2013-06-01 00:05:00,69.8,63.0,29.98,WSW,249,1.0,4.0,80,0.00,,,0.00,oem by Ross Wheeler,2013-06-01 04:05:00,
2013-06-01 00:10:00,69.8,63.0,29.98,WNW,294,1.0,4.0,80,0.00,,,0.00,oem by Ross Wheeler,2013-06-01 04:10:00,
2013-06-01 00:16:00,69.8,63.0,29.98,SW,218,1.0,6.0,80,0.00,,,0.00,oem by Ross Wheeler,2013-06-01 04:16:00,
2013-06-01 00:23:00,69.8,63.0,29.98,WSW,237,3.0,5.0,80,0.00,,,0.00,weatherlink.com 1.10,2013-06-01 04:23:00,
2013-06-01 00:25:00,69.8,63.0,29.98,West,271,2.0,5.0,80,0.00,,,0.00,oem by Ross Wheeler,2013-06-01 04:25:00,
2013-06-01 00:31:00,69.8,63.0,29.98,SW,235,1.0,5.0,80,0.00,,,0.00,oem by Ross Wheeler,2013-06-01 04:31:00,
2013-06-01 00:39:00,69.6,64.0,29.98,WSW,248,0.0,5.0,81,0.00,,,0.00,weatherlink.com 1.10,2013-06-01 04:39:00,
2013-06-01 00:46:00,69.4,63.0,29.98,WSW,250,0.0,2.0,81,0.00,,,0.00,oem by Ross Wheeler,2013-06-01 04:46:00,
2013-06-01 00:53:00,68.8,62.0,29.98,WSW,250,0.0,0.0,80,0.00,,,0.00,weatherlink.com 1.10,2013-06-01 04:53:00,
2013-06-01 01:01:00,67.8,61.0,29.98,WSW,250,0.0,0.0,80,0.00,,,0.00,oem by Ross Wheeler,2013-06-01 05:01:00,
2013-06-01 01:09:00,66.4,61.0,29.98,WSW,250,0.0,1.0,82,0.00,,,0.00,weatherlink.com 1.10,2013-06-01 05:09:00,
2013-06-01 01:16:00,65.5,60.0,29.98,WSW,250,0.0,0.0,83,0.00,,,0.00,oem by Ross Wheeler,2013-06-01 05:16:00,
2013-06-01 01:24:00,64.5,60.0,29.98,WSW,250,0.0,0.0,85,0.00,,,0.00,weatherlink.com 1.10,2013-06-01 05:24:00,
2013-06-01 01:31:00,63.9,60.0,29.98,WSW,250,0.0,0.0,87,0.00,,,0.00,oem by Ross Wheeler,2013-06-01 05:31:00,
2013-06-01 01:39:00,63.4,60.0,29.98,WSW,250,0.0,1.0,88,0.00,,,0.00,weatherlink.com 1.10,2013-06-01 05:39:00,
2013-06-01 01:46:00,63.0,60.0,29.98,WSW,250,0.0,0.0,89,0.00,,,0.00,oem by Ross Wheeler,2013-06-01 05:46:00,
2013-06-01 01:54:00,62.7,60.0,29.97,WSW,250,0.0,0.0,90,0.00,,,0.00,weatherlink.com 1.10,2013-06-01 05:54:00,
2013-06-01 02:01:00,62.7,60.0,29.98,WSW,250,0.0,0.0,91,0.00,,,0.00,oem by Ross Wheeler,2013-06-01 06:01:00,
2013-06-01 02:09:00,62.6,60.0,29.97,WSW,250,0.0,0.0,91,0.00,,,0.00,weatherlink.com 1.10,2013-06-01 06:09:00,
2013-06-01 02:16:00,62.6,60.0,29.97,WSW,250,0.0,0.0,91,0.00,,,0.00,oem by Ross Wheeler,2013-06-01 06:16:00,
2013-06-01 02:24:00,62.5,60.0,29.97,WSW,250,0.0,0.0,92,0.00,,,0.00,weatherlink.com 1.10,2013-06-01 06:24:00,
2013-06-01 02:31:00,62.5,60.0,29.97,WSW,249,0.0,1.0,92,0.00,,,0.00,oem by Ross Wheeler,2013-06-01 06:31:00,
2013-06-01 02:39:00,62.5,60.0,29.97,WSW,249,0.0,0.0,92,0.00,,,0.00,weatherlink.com 1.10,2013-06-01 06:39:00,
2013-06-01 02:46:00,62.4,60.0,29.97,WSW,249,0.0,0.0,92,0.00,,,0.00,oem by Ross Wheeler,2013-06-01 06:46:00,
2013-06-01 02:54:00,62.3,60.0,29.97,WSW,249,0.0,0.0,92,0.00,,,0.00,weatherlink.com 1.10,2013-06-01 06:54:00,
2013-06-01 03:01:00,62.1,60.0,29.97,WSW,250,0.0,0.0,92,0.00,,,0.00,oem by Ross Wheeler,2013-06-01 07:01:00,
2013-06-01 03:09:00,61.9,60.0,29.97,WSW,249,0.0,0.0,92,0.00,,,0.00,weatherlink.com 1.10,2013-06-01 07:09:00,
2013-06-01 03:16:00,61.7,59.0,29.97,WSW,249,0.0,0.0,92,0.00,,,0.00,oem by Ross Wheeler,2013-06-01 07:16:00,
2013-06-01 03:24:00,61.6,60.0,29.97,WSW,250,0.0,0.0,93,0.00,,,0.00,weatherlink.com 1.10,2013-06-01 07:24:00,
2013-06-01 03:31:00,61.5,60.0,29.97,WSW,249,0.0,0.0,93,0.00,,,0.00,oem by Ross Wheeler,2013-06-01 07:31:00,
2013-06-01 03:39:00,61.4,60.0,29.97,WSW,249,0.0,0.0,94,0.00,,,0.00,weatherlink.com 1.10,2013-06-01 07:39:00,
2013-06-01 03:46:00,61.2,60.0,29.97,WSW,249,0.0,0.0,94,0.00,,,0.00,oem by Ross Wheeler,2013-06-01 07:46:00,
2013-06-01 03:54:00,61.2,60.0,29.97,WSW,249,0.0,0.0,94,0.00,,,0.00,weatherlink.com 1.10,2013-06-01 07:54:00,
2013-06-01 04:01:00,61.1,59.0,29.97,WSW,250,0.0,0.0,94,0.00,,,0.00,oem by Ross Wheeler,2013-06-01 08:01:00,
2013-06-01 04:09:00,60.9,59.0,29.97,WSW,249,0.0,0.0,94,0.00,,,0.00,weatherlink.com 1.10,2013-06-01 08:09:00,
2013-06-01 04:16:00,61.0,60.0,29.97,WSW,249,0.0,0.0,95,0.00,,,0.00,oem by Ross Wheeler,2013-06-01 08:16:00,
2013-06-01 04:24:00,61.0,60.0,29.96,WSW,250,0.0,0.0,95,0.00,,,0.00,weatherlink.com 1.10,2013-06-01 08:24:00,
2013-06-01 04:31:00,60.9,60.0,29.96,WSW,250,0.0,0.0,95,0.00,,,0.00,oem by Ross Wheeler,2013-06-01 08:31:00,
2013-06-01 04:39:00,60.8,59.0,29.97,WSW,249,0.0,0.0,95,0.00,,,0.00,weatherlink.com 1.10,2013-06-01 08:39:00,
2013-06-01 04:46:00,60.7,59.0,29.97,WSW,249,0.0,0.0,95,0.00,,,0.00,oem by Ross Wheeler,2013-06-01 08:46:00,
2013-06-01 04:54:00,60.6,59.0,29.97,WSW,249,0.0,0.0,95,0.00,,,0.00,weatherlink.com 1.10,2013-06-01 08:54:00,
2013-06-01 05:01:00,60.6,59.0,29.97,WSW,249,0.0,0.0,95,0.00,,,0.00,oem by Ross Wheeler,2013-06-01 09:01:00,
2013-06-01 05:09:00,60.9,60.0,29.97,WSW,249,0.0,0.0,96,0.00,,,0.00,weatherlink.com 1.10,2013-06-01 09:09:00,
2013-06-01 05:16:00,61.1,60.0,29.97,WSW,249,0.0,0.0,96,0.00,,,0.00,oem by Ross Wheeler,2013-06-01 09:16:00,
2013-06-01 05:24:00,61.4,60.0,29.97,WSW,249,0.0,0.0,96,0.00,,,0.00,weatherlink.com 1.10,2013-06-01 09:24:00,
2013-06-01 05:31:00,61.6,61.0,29.97,SW,214,0.0,0.0,96,0.00,,,0.00,oem by Ross Wheeler,2013-06-01 09:31:00,
2013-06-01 05:39:00,61.7,61.0,29.97,SW,214,0.0,0.0,96,0.00,,,0.00,weatherlink.com 1.10,2013-06-01 09:39:00,
2013-06-01 05:46:00,61.8,60.0,29.97,SW,214,0.0,0.0,95,0.00,,,0.00,oem by Ross Wheeler,2013-06-01 09:46:00,
2013-06-01 05:54:00,62.7,62.0,29.98,SSW,211,0.0,2.0,96,0.00,,,0.00,weatherlink.com 1.10,2013-06-01 09:54:00,
2013-06-01 06:01:00,63.6,63.0,29.98,SSW,202,0.0,2.0,96,0.00,,,0.00,oem by Ross Wheeler,2013-06-01 10:01:00,
2013-06-01 06:09:00,65.1,64.0,29.98,SW,219,0.0,3.0,95,0.00,,,0.00,weatherlink.com 1.10,2013-06-01 10:09:00,
2013-06-01 06:16:00,66.0,64.0,29.98,WSW,249,0.0,3.0,94,0.00,,,0.00,oem by Ross Wheeler,2013-06-01 10:16:00,
2013-06-01 06:24:00,66.7,64.0,29.98,SW,221,0.0,2.0,91,0.00,,,0.00,weatherlink.com 1.10,2013-06-01 10:24:00,
2013-06-01 06:31:00,66.8,64.0,29.98,West,266,0.0,3.0,90,0.00,,,0.00,oem by Ross Wheeler,2013-06-01 10:31:00,
2013-06-01 06:39:00,66.9,63.0,29.98,WSW,250,0.0,2.0,87,0.00,,,0.00,weatherlink.com 1.10,2013-06-01 10:39:00,
2013-06-01 06:46:00,67.7,63.0,29.98,WSW,240,0.0,1.0,86,0.00,,,0.00,oem by Ross Wheeler,2013-06-01 10:46:00,
2013-06-01 06:54:00,68.7,63.0,29.98,ESE,105,0.0,1.0,83,0.00,,,0.00,weatherlink.com 1.10,2013-06-01 10:54:00,
2013-06-01 07:01:00,68.5,63.0,29.98,WSW,257,1.0,2.0,83,0.00,,,0.00,oem by Ross Wheeler,2013-06-01 11:01:00,
2013-06-01 07:09:00,66.7,63.0,29.98,SW,228,1.0,4.0,87,0.00,,,0.00,weatherlink.com 1.10,2013-06-01 11:09:00,
2013-06-01 07:16:00,66.6,63.0,29.98,West,264,1.0,4.0,87,0.00,,,0.00,oem by Ross Wheeler,2013-06-01 11:16:00,
2013-06-01 07:24:00,66.6,63.0,29.98,West,264,0.0,3.0,88,0.00,,,0.00,weatherlink.com 1.10,2013-06-01 11:24:00,
2013-06-01 07:31:00,67.0,63.0,29.98,WSW,245,2.0,4.0,88,0.00,,,0.00,oem by Ross Wheeler,2013-06-01 11:31:00,
2013-06-01 07:39:00,67.4,64.0,29.99,SW,235,0.0,3.0,88,0.00,,,0.00,weatherlink.com 1.10,2013-06-01 11:39:00,
2013-06-01 07:46:00,68.1,64.0,29.99,West,273,2.0,2.0,87,0.00,,,0.00,oem by Ross Wheeler,2013-06-01 11:46:00,
2013-06-01 07:54:00,69.2,65.0,29.99,SSW,210,4.0,5.0,87,0.00,,,0.00,weatherlink.com 1.10,2013-06-01 11:54:00,
2013-06-01 08:01:00,69.5,65.0,29.99,WSW,255,0.0,5.0,86,0.00,,,0.00,oem by Ross Wheeler,2013-06-01 12:01:00,
2013-06-01 08:09:00,69.8,66.0,29.99,WSW,253,2.0,3.0,86,0.00,,,0.00,weatherlink.com 1.10,2013-06-01 12:09:00,
2013-06-01 08:16:00,69.7,65.0,29.99,WSW,252,1.0,2.0,86,0.00,,,0.00,oem by Ross Wheeler,2013-06-01 12:16:00,
2013-06-01 08:24:00,70.2,66.0,29.99,SW,219,1.0,5.0,85,0.00,,,0.00,weatherlink.com 1.10,2013-06-01 12:24:00,
2013-06-01 08:31:00,70.6,66.0,29.99,West,272,0.0,4.0,85,0.00,,,0.00,oem by Ross Wheeler,2013-06-01 12:31:00,
2013-06-01 08:39:00,71.1,66.0,29.99,SW,225,1.0,4.0,85,0.00,,,0.00,weatherlink.com 1.10,2013-06-01 12:39:00,
2013-06-01 08:46:00,71.4,66.0,29.99,SW,221,2.0,5.0,84,0.00,,,0.00,oem by Ross Wheeler,2013-06-01 12:46:00,
2013-06-01 08:54:00,72.1,67.0,29.99,West,259,0.0,8.0,84,0.00,,,0.00,weatherlink.com 1.10,2013-06-01 12:54:00,
2013-06-01 09:01:00,72.6,67.0,29.98,SE,136,0.0,4.0,83,0.00,,,0.00,oem by Ross Wheeler,2013-06-01 13:01:00,
2013-06-01 09:09:00,72.8,67.0,29.98,WNW,298,2.0,5.0,82,0.00,,,0.00,weatherlink.com 1.10,2013-06-01 13:09:00,
2013-06-01 09:16:00,73.1,67.0,29.98,SW,233,0.0,4.0,82,0.00,,,0.00,oem by Ross Wheeler,2013-06-01 13:16:00,
2013-06-01 09:24:00,73.1,67.0,29.98,West,277,2.0,5.0,81,0.00,,,0.00,weatherlink.com 1.10,2013-06-01 13:24:00,
2013-06-01 09:31:00,72.7,67.0,29.99,WSW,252,3.0,6.0,81,0.00,,,0.00,oem by Ross Wheeler,2013-06-01 13:31:00,
2013-06-01 09:39:00,72.5,67.0,29.98,West,281,1.0,5.0,82,0.00,,,0.00,weatherlink.com 1.10,2013-06-01 13:39:00,
2013-06-01 09:46:00,72.7,67.0,29.98,WSW,249,1.0,4.0,82,0.00,,,0.00,oem by Ross Wheeler,2013-06-01 13:46:00,
2013-06-01 09:54:00,72.6,67.0,29.98,SW,222,0.0,5.0,82,0.00,,,0.00,weatherlink.com 1.10,2013-06-01 13:54:00,
2013-06-01 10:01:00,73.0,67.0,29.98,WSW,257,3.0,4.0,81,0.00,,,0.00,oem by Ross Wheeler,2013-06-01 14:01:00,
2013-06-01 10:10:00,73.2,67.0,29.98,SSW,212,2.0,5.0,80,0.00,,,0.00,weatherlink.com 1.10,2013-06-01 14:10:00,
2013-06-01 10:16:00,73.0,67.0,29.98,SSW,201,0.0,4.0,80,0.00,,,0.00,oem by Ross Wheeler,2013-06-01 14:16:00,
2013-06-01 10:25:00,73.5,67.0,29.98,SW,225,1.0,4.0,81,0.00,,,0.00,weatherlink.com 1.10,2013-06-01 14:25:00,
2013-06-01 10:31:00,73.7,67.0,29.99,West,281,0.0,5.0,79,0.00,,,0.00,oem by Ross Wheeler,2013-06-01 14:31:00,
2013-06-01 10:40:00,74.6,68.0,29.98,SSW,208,0.0,5.0,79,0.00,,,0.00,weatherlink.com 1.10,2013-06-01 14:40:00,
2013-06-01 10:46:00,75.0,68.0,29.98,SSW,205,0.0,4.0,78,0.00,,,0.00,oem by Ross Wheeler,2013-06-01 14:46:00,
2013-06-01 10:55:00,75.9,69.0,29.98,SW,214,1.0,5.0,78,0.00,,,0.00,weatherlink.com 1.10,2013-06-01 14:55:00,
2013-06-01 11:01:00,76.6,69.0,29.98,WSW,240,1.0,3.0,77,0.00,,,0.00,oem by Ross Wheeler,2013-06-01 15:01:00,
2013-06-01 11:10:00,77.2,70.0,29.98,SW,219,1.0,4.0,77,0.00,,,0.00,weatherlink.com 1.10,2013-06-01 15:10:00,
2013-06-01 11:16:00,77.7,70.0,29.98,WSW,253,0.0,4.0,77,0.00,,,0.00,oem by Ross Wheeler,2013-06-01 15:16:00,
2013-06-01 11:25:00,78.9,70.0,29.97,SSE,162,0.0,1.0,73,0.00,,,0.00,weatherlink.com 1.10,2013-06-01 15:25:00,
2013-06-01 11:31:00,79.2,70.0,29.98,WSW,252,0.0,2.0,73,0.00,,,0.00,oem by Ross Wheeler,2013-06-01 15:31:00,
2013-06-01 11:40:00,79.7,70.0,29.98,SW,228,0.0,3.0,72,0.00,,,0.00,weatherlink.com 1.10,2013-06-01 15:40:00,
2013-06-01 11:46:00,79.6,69.0,29.98,West,260,2.0,4.0,71,0.00,,,0.00,oem by Ross Wheeler,2013-06-01 15:46:00,
2013-06-01 11:55:00,79.6,69.0,29.97,WNW,288,2.0,5.0,70,0.00,,,0.00,weatherlink.com 1.10,2013-06-01 15:55:00,
2013-06-01 12:01:00,80.0,70.0,29.97,SW,225,0.0,4.0,71,0.00,,,0.00,oem by Ross Wheeler,2013-06-01 16:01:00,
2013-06-01 12:10:00,81.0,70.0,29.97,WSW,246,2.0,3.0,70,0.00,,,0.00,weatherlink.com 1.10,2013-06-01 16:10:00,
2013-06-01 12:16:00,81.6,71.0,29.97,SW,214,0.0,3.0,69,0.00,,,0.00,oem by Ross Wheeler,2013-06-01 16:16:00,
2013-06-01 12:25:00,82.4,70.0,29.96,SE,142,0.0,2.0,66,0.00,,,0.00,weatherlink.com 1.10,2013-06-01 16:25:00,
2013-06-01 12:31:00,82.7,70.0,29.96,ENE,74,0.0,0.0,65,0.00,,,0.00,oem by Ross Wheeler,2013-06-01 16:31:00,
2013-06-01 12:40:00,82.9,69.0,29.95,ENE,74,0.0,0.0,64,0.00,,,0.00,weatherlink.com 1.10,2013-06-01 16:40:00,
2013-06-01 12:46:00,82.3,68.0,29.95,SSW,208,0.0,0.0,63,0.00,,,0.00,oem by Ross Wheeler,2013-06-01 16:46:00,
2013-06-01 12:55:00,81.5,68.0,29.95,SSW,210,0.0,1.0,63,0.00,,,0.00,weatherlink.com 1.10,2013-06-01 16:55:00,
2013-06-01 13:01:00,81.5,68.0,29.95,SSW,210,0.0,0.0,63,0.00,,,0.00,oem by Ross Wheeler,2013-06-01 17:01:00,
2013-06-01 13:10:00,81.1,68.0,29.95,SE,131,0.0,1.0,64,0.00,,,0.00,weatherlink.com 1.10,2013-06-01 17:10:00,
2013-06-01 13:16:00,80.6,68.0,29.95,East,89,0.0,1.0,65,0.00,,,0.00,oem by Ross Wheeler,2013-06-01 17:16:00,
2013-06-01 13:25:00,80.3,68.0,29.95,ENE,65,0.0,3.0,66,0.00,,,0.00,weatherlink.com 1.10,2013-06-01 17:25:00,
2013-06-01 13:31:00,80.0,68.0,29.95,ENE,63,0.0,1.0,66,0.00,,,0.00,oem by Ross Wheeler,2013-06-01 17:31:00,
2013-06-01 13:40:00,79.5,68.0,29.95,SSE,149,0.0,2.0,67,0.00,,,0.00,weatherlink.com 1.10,2013-06-01 17:40:00,
2013-06-01 13:46:00,79.5,67.0,29.95,ENE,68,0.0,1.0,65,0.00,,,0.00,oem by Ross Wheeler,2013-06-01 17:46:00,
2013-06-01 13:55:00,79.5,67.0,29.95,NW,324,0.0,1.0,66,0.00,,,0.00,weatherlink.com 1.10,2013-06-01 17:55:00,
2013-06-01 14:01:00,79.5,68.0,29.94,ESE,108,0.0,1.0,67,0.00,,,0.00,oem by Ross Wheeler,2013-06-01 18:01:00,
2013-06-01 14:10:00,80.1,68.0,29.94,WSW,250,3.0,4.0,66,0.00,,,0.00,weatherlink.com 1.10,2013-06-01 18:10:00,
2013-06-01 14:16:00,79.9,68.0,29.94,WNW,284,3.0,6.0,68,0.00,,,0.00,oem by Ross Wheeler,2013-06-01 18:16:00,
2013-06-01 14:25:00,79.4,68.0,29.94,South,191,0.0,7.0,68,0.00,,,0.00,weatherlink.com 1.10,2013-06-01 18:25:00,
2013-06-01 14:31:00,79.3,68.0,29.94,West,262,0.0,6.0,69,0.00,,,0.00,oem by Ross Wheeler,2013-06-01 18:31:00,
2013-06-01 14:40:00,79.5,68.0,29.94,SE,127,0.0,5.0,68,0.00,,,0.00,weatherlink.com 1.10,2013-06-01 18:40:00,
2013-06-01 14:46:00,79.7,69.0,29.93,NNW,333,0.0,5.0,69,0.00,,,0.00,oem by Ross Wheeler,2013-06-01 18:46:00,
2013-06-01 14:55:00,80.6,68.0,29.93,SW,232,0.0,1.0,65,0.00,,,0.00,weatherlink.com 1.10,2013-06-01 18:55:00,
2013-06-01 15:01:00,80.0,67.0,29.93,NNW,333,0.0,1.0,65,0.00,,,0.00,oem by Ross Wheeler,2013-06-01 19:01:00,
2013-06-01 15:10:00,79.1,67.0,29.93,NE,34,1.0,3.0,67,0.00,,,0.00,weatherlink.com 1.10,2013-06-01 19:10:00,
2013-06-01 15:16:00,79.6,69.0,29.92,WNW,300,0.0,2.0,69,0.00,,,0.00,oem by Ross Wheeler,2013-06-01 19:16:00,
2013-06-01 15:25:00,80.6,69.0,29.93,SW,232,1.0,3.0,67,0.00,,,0.00,weatherlink.com 1.10,2013-06-01 19:25:00,
2013-06-01 15:31:00,80.1,69.0,29.93,SW,235,4.0,4.0,68,0.00,,,0.00,oem by Ross Wheeler,2013-06-01 19:31:00,
2013-06-01 15:40:00,80.7,68.0,29.92,West,270,3.0,6.0,66,0.00,,,0.00,weatherlink.com 1.10,2013-06-01 19:40:00,
2013-06-01 15:46:00,79.8,69.0,29.92,SSW,203,0.0,6.0,69,0.00,,,0.00,oem by Ross Wheeler,2013-06-01 19:46:00,
2013-06-01 15:55:00,79.9,69.0,29.92,SSW,194,3.0,4.0,69,0.00,,,0.00,weatherlink.com 1.10,2013-06-01 19:55:00,
2013-06-01 16:01:00,79.3,68.0,29.92,West,271,1.0,6.0,69,0.00,,,0.00,oem by Ross Wheeler,2013-06-01 20:01:00,
2013-06-01 16:10:00,79.4,68.0,29.92,NE,53,0.0,7.0,68,0.00,,,0.00,weatherlink.com 1.10,2013-06-01 20:10:00,
2013-06-01 16:16:00,79.3,68.0,29.92,SSW,207,0.0,3.0,68,0.00,,,0.00,oem by Ross Wheeler,2013-06-01 20:16:00,
2013-06-01 16:25:00,79.4,67.0,29.92,WNW,283,1.0,4.0,67,0.00,,,0.00,weatherlink.com 1.10,2013-06-01 20:25:00,
2013-06-01 16:31:00,79.6,68.0,29.92,SW,236,0.0,5.0,68,0.00,,,0.00,oem by Ross Wheeler,2013-06-01 20:31:00,
2013-06-01 16:40:00,78.4,67.0,29.92,West,259,5.0,6.0,69,0.00,,,0.00,weatherlink.com 1.10,2013-06-01 20:40:00,
2013-06-01 16:46:00,78.0,67.0,29.92,SW,218,2.0,8.0,70,0.00,,,0.00,oem by Ross Wheeler,2013-06-01 20:46:00,
2013-06-01 16:55:00,78.5,68.0,29.92,West,266,0.0,5.0,69,0.00,,,0.00,weatherlink.com 1.10,2013-06-01 20:55:00,
2013-06-01 17:01:00,78.3,67.0,29.92,WSW,250,3.0,6.0,69,0.00,,,0.00,oem by Ross Wheeler,2013-06-01 21:01:00,
2013-06-01 17:10:00,77.6,67.0,29.92,SW,229,2.0,5.0,70,0.00,,,0.00,weatherlink.com 1.10,2013-06-01 21:10:00,
2013-06-01 17:16:00,77.5,67.0,29.92,SW,219,4.0,5.0,70,0.00,,,0.00,oem by Ross Wheeler,2013-06-01 21:16:00,
2013-06-01 17:25:00,76.6,67.0,29.92,SW,219,3.0,8.0,71,0.00,,,0.00,weatherlink.com 1.10,2013-06-01 21:25:00,
2013-06-01 17:31:00,76.2,67.0,29.92,SW,221,1.0,8.0,73,0.00,,,0.00,oem by Ross Wheeler,2013-06-01 21:31:00,
2013-06-01 17:40:00,75.9,66.0,29.92,West,276,2.0,7.0,72,0.00,,,0.00,weatherlink.com 1.10,2013-06-01 21:40:00,
2013-06-01 17:46:00,75.9,67.0,29.91,West,266,2.0,5.0,73,0.00,,,0.00,oem by Ross Wheeler,2013-06-01 21:46:00,
2013-06-01 17:55:00,76.8,67.0,29.91,WNW,284,2.0,4.0,72,0.00,,,0.00,weatherlink.com 1.10,2013-06-01 21:55:00,
2013-06-01 18:01:00,76.4,67.0,29.91,SW,214,0.0,6.0,72,0.00,,,0.00,oem by Ross Wheeler,2013-06-01 22:01:00,
2013-06-01 18:10:00,76.8,67.0,29.91,SSE,163,0.0,3.0,71,0.00,,,0.00,oem by Ross Wheeler,2013-06-01 22:10:00,
2013-06-01 18:16:00,76.7,67.0,29.91,SW,215,0.0,3.0,71,0.00,,,0.00,oem by Ross Wheeler,2013-06-01 22:16:00,
2013-06-01 18:25:00,75.7,66.0,29.90,WSW,248,1.0,4.0,73,0.00,,,0.00,oem by Ross Wheeler,2013-06-01 22:25:00,
2013-06-01 18:31:00,75.0,66.0,29.91,SW,226,0.0,5.0,73,0.00,,,0.00,oem by Ross Wheeler,2013-06-01 22:31:00,
2013-06-01 18:40:00,74.1,66.0,29.91,WSW,251,1.0,4.0,75,0.00,,,0.00,oem by Ross Wheeler,2013-06-01 22:40:00,
2013-06-01 18:46:00,73.8,65.0,29.91,West,275,0.0,5.0,75,0.00,,,0.00,oem by Ross Wheeler,2013-06-01 22:46:00,
2013-06-01 18:55:00,73.1,65.0,29.91,SSW,196,4.0,6.0,76,0.00,,,0.00,oem by Ross Wheeler,2013-06-01 22:55:00,
2013-06-01 19:01:00,73.1,66.0,29.90,WNW,295,4.0,6.0,77,0.00,,,0.00,oem by Ross Wheeler,2013-06-01 23:01:00,
2013-06-01 19:10:00,72.8,66.0,29.91,West,277,3.0,6.0,78,0.00,,,0.00,oem by Ross Wheeler,2013-06-01 23:10:00,
2013-06-01 19:16:00,72.2,65.0,29.91,WSW,248,2.0,6.0,79,0.00,,,0.00,oem by Ross Wheeler,2013-06-01 23:16:00,
2013-06-01 19:25:00,71.4,65.0,29.91,SW,232,3.0,6.0,80,0.00,,,0.00,oem by Ross Wheeler,2013-06-01 23:25:00,
2013-06-01 19:31:00,71.0,65.0,29.91,SSW,211,0.0,6.0,82,0.00,,,0.00,oem by Ross Wheeler,2013-06-01 23:31:00,
2013-06-01 19:40:00,70.9,65.0,29.91,SW,218,1.0,4.0,82,0.00,,,0.00,oem by Ross Wheeler,2013-06-01 23:40:00,
2013-06-01 19:46:00,70.6,65.0,29.91,WSW,250,0.0,3.0,82,0.00,,,0.00,oem by Ross Wheeler,2013-06-01 23:46:00,
2013-06-01 19:55:00,70.2,65.0,29.91,SW,219,0.0,2.0,83,0.00,,,0.00,oem by Ross Wheeler,2013-06-01 23:55:00,
2013-06-01 20:01:00,70.0,65.0,29.92,SW,224,0.0,1.0,83,0.00,,,0.00,oem by Ross Wheeler,2013-06-02 00:01:00,
2013-06-01 20:10:00,69.6,65.0,29.92,West,261,2.0,3.0,84,0.00,,,0.00,oem by Ross Wheeler,2013-06-02 00:10:00,
2013-06-01 20:16:00,69.2,65.0,29.92,WNW,302,0.0,4.0,85,0.00,,,0.00,oem by Ross Wheeler,2013-06-02 00:16:00,
2013-06-01 20:25:00,68.6,64.0,29.92,WNW,283,5.0,5.0,86,0.00,,,0.00,oem by Ross Wheeler,2013-06-02 00:25:00,
2013-06-01 20:31:00,68.3,64.0,29.92,SSW,204,0.0,6.0,87,0.00,,,0.00,oem by Ross Wheeler,2013-06-02 00:31:00,
2013-06-01 20:40:00,68.0,64.0,29.92,West,261,0.0,2.0,87,0.00,,,0.00,oem by Ross Wheeler,2013-06-02 00:40:00,
2013-06-01 20:46:00,67.8,64.0,29.92,SW,235,1.0,2.0,88,0.00,,,0.00,oem by Ross Wheeler,2013-06-02 00:46:00,
2013-06-01 20:55:00,67.7,64.0,29.92,WSW,250,0.0,2.0,88,0.00,,,0.00,oem by Ross Wheeler,2013-06-02 00:55:00,
2013-06-01 21:01:00,67.5,64.0,29.93,SW,229,0.0,2.0,88,0.00,,,0.00,oem by Ross Wheeler,2013-06-02 01:01:00,
2013-06-01 21:10:00,67.1,64.0,29.93,West,262,0.0,3.0,89,0.00,,,0.00,oem by Ross Wheeler,2013-06-02 01:10:00,
2013-06-01 21:16:00,67.0,64.0,29.92,SSW,197,0.0,2.0,89,0.00,,,0.00,oem by Ross Wheeler,2013-06-02 01:16:00,
2013-06-01 21:25:00,66.8,64.0,29.92,SW,236,1.0,2.0,89,0.00,,,0.00,oem by Ross Wheeler,2013-06-02 01:25:00,
2013-06-01 21:31:00,66.8,64.0,29.93,SW,224,0.0,2.0,89,0.00,,,0.00,oem by Ross Wheeler,2013-06-02 01:31:00,
2013-06-01 21:40:00,66.6,63.0,29.93,SW,217,3.0,3.0,89,0.00,,,0.00,oem by Ross Wheeler,2013-06-02 01:40:00,
2013-06-01 21:46:00,66.3,63.0,29.93,WSW,245,0.0,3.0,89,0.00,,,0.00,oem by Ross Wheeler,2013-06-02 01:46:00,
2013-06-01 21:55:00,66.0,63.0,29.92,SSW,205,0.0,1.0,90,0.00,,,0.00,oem by Ross Wheeler,2013-06-02 01:55:00,
2013-06-01 22:01:00,66.0,63.0,29.92,WSW,245,0.0,2.0,91,0.00,,,0.00,oem by Ross Wheeler,2013-06-02 02:01:00,
2013-06-01 22:10:00,66.0,63.0,29.92,SW,221,2.0,3.0,91,0.00,,,0.00,oem by Ross Wheeler,2013-06-02 02:10:00,
2013-06-01 22:16:00,66.2,64.0,29.92,SW,232,0.0,3.0,91,0.00,,,0.00,oem by Ross Wheeler,2013-06-02 02:16:00,
2013-06-01 22:25:00,66.6,64.0,29.92,WSW,245,0.0,5.0,91,0.00,,,0.00,oem by Ross Wheeler,2013-06-02 02:25:00,
2013-06-01 22:31:00,66.9,64.0,29.92,West,271,4.0,5.0,90,0.00,,,0.00,oem by Ross Wheeler,2013-06-02 02:31:00,
2013-06-01 22:40:00,67.2,64.0,29.92,WSW,255,3.0,6.0,90,0.00,,,0.00,oem by Ross Wheeler,2013-06-02 02:40:00,
2013-06-01 22:46:00,67.3,64.0,29.91,SW,217,0.0,3.0,90,0.00,,,0.00,oem by Ross Wheeler,2013-06-02 02:46:00,
2013-06-01 22:55:00,67.3,64.0,29.91,WSW,248,0.0,3.0,90,0.00,,,0.00,oem by Ross Wheeler,2013-06-02 02:55:00,
2013-06-01 23:01:00,67.3,64.0,29.91,SW,217,2.0,2.0,90,0.00,,,0.00,oem by Ross Wheeler,2013-06-02 03:01:00,
2013-06-01 23:10:00,67.2,64.0,29.92,SSW,198,2.0,2.0,90,0.00,,,0.00,oem by Ross Wheeler,2013-06-02 03:10:00,
2013-06-01 23:16:00,67.2,64.0,29.92,SSW,201,1.0,3.0,90,0.00,,,0.00,oem by Ross Wheeler,2013-06-02 03:16:00,
2013-06-01 23:25:00,67.1,64.0,29.92,SW,224,2.0,3.0,90,0.00,,,0.00,oem by Ross Wheeler,2013-06-02 03:25:00,
2013-06-01 23:31:00,67.2,64.0,29.92,SW,224,0.0,4.0,90,0.00,,,0.00,oem by Ross Wheeler,2013-06-02 03:31:00,
2013-06-01 23:40:00,67.0,64.0,29.91,SSW,210,0.0,2.0,90,0.00,,,0.00,oem by Ross Wheeler,2013-06-02 03:40:00,
2013-06-01 23:46:00,66.9,64.0,29.92,SW,231,1.0,2.0,90,0.00,,,0.00,oem by Ross Wheeler,2013-06-02 03:46:00,
2013-06-01 23:55:00,66.8,64.0,29.92,SSW,212,0.0,2.0,90,0.00,,,0.00,oem by Ross Wheeler,2013-06-02 03:55:00,